User: anonymous   Login
Location: Unspecified
(0.0000°N, 0.0000°E)
Time: 14:18:29
(UTC+00:00)
Language:

MOST - Orbit

View from above orbital plane
View from above orbital plane
View from above satellite
View from above satellite

Ground track
Ground track

The orbit data is extracted from the following two-line orbital elements,

1 27843U 03031D   18114.85857281  .00092639  00000-0  42035-1 0  9994
2 27843  98.7136 123.5264 0009331 186.2859 173.8202 14.21186435768209
Epoch (UTC): 24 April 2018 20:36:20
Eccentricity: 0.0009331
inclination: 98.7136°
perigee height: 814 km
apogee height: 828 km
right ascension of ascending node: 123.5264°
argument of perigee: 186.2859°
revolutions per day: 14.21186435
mean anomaly at epoch: 173.8202°
orbit number at epoch: 76820

The dashed part of the orbit path shows where the satellite is in the earth's shadow,  

DLR